timestamp,surface_pressure_avg,surface_temp_avg,battery_voltage,lat,long
2019-07-17 00:00:00+00:00,361.2896,12.3,13.05,47.84626,-54.09684
2019-07-17 00:10:00+00:00,358.0731,12.3,12.97,47.84626,-54.09684
2019-07-17 00:20:00+00:00,359.6497,12.3,12.97,47.84626,-54.09684
2019-07-17 00:30:00+00:00,358.5513,12.33,12.97,47.84626,-54.09684
2019-07-17 00:40:00+00:00,350.8096,12.4,12.97,47.84626,-54.09684
2019-07-17 00:50:00+00:00,345.543,12.4,12.97,47.84626,-54.09684
2019-07-17 01:00:00+00:00,343.2162,12.42,12.97,47.84626,-54.09684
2019-07-17 01:10:00+00:00,341.2363,12.5,12.89,47.84626,-54.09684
2019-07-17 01:20:00+00:00,333.8679,12.72,12.97,47.84626,-54.09684
2019-07-17 01:30:00+00:00,328.8046,12.79,12.97,47.84626,-54.09684
2019-07-17 01:40:00+00:00,326.2147,12.73,12.97,47.84626,-54.09684
2019-07-17 01:50:00+00:00,320.9347,12.77,12.97,47.84626,-54.09684
2019-07-17 02:00:00+00:00,313.038,12.77,12.89,47.84626,-54.09684
2019-07-17 02:10:00+00:00,306.258,12.79,12.81,47.84626,-54.09684
2019-07-17 02:20:00+00:00,302.763,12.8,12.97,47.84626,-54.09684
2019-07-17 02:30:00+00:00,295.1246,12.8,12.97,47.84626,-54.09684
2019-07-17 02:40:00+00:00,284.3981,12.86,12.97,47.84626,-54.09684
2019-07-17 02:50:00+00:00,278.2947,12.9,12.97,47.84626,-54.09684
2019-07-17 03:00:00+00:00,271.0264,12.9,12.89,47.84626,-54.09684
2019-07-17 03:10:00+00:00,260.3081,12.95,12.81,47.84626,-54.09684
2019-07-17 03:20:00+00:00,252.8964,13.0,12.89,47.84626,-54.09684
2019-07-17 03:30:00+00:00,248.9664,13.0,12.89,47.84626,-54.09684
2019-07-17 03:40:00+00:00,239.8614,13.09,12.97,47.84626,-54.09684
2019-07-17 03:50:00+00:00,226.8264,13.12,12.97,47.84626,-54.09684
2019-07-17 04:00:00+00:00,220.663,13.19,12.89,47.84626,-54.09684
2019-07-17 04:10:00+00:00,217.9265,13.2,12.81,47.84626,-54.09684
2019-07-17 04:20:00+00:00,209.7565,13.2,12.89,47.84626,-54.09684
2019-07-17 04:30:00+00:00,202.6298,13.2,12.89,47.84626,-54.09684
2019-07-17 04:40:00+00:00,201.7097,13.21,12.97,47.84626,-54.09684
2019-07-17 04:50:00+00:00,197.7681,13.26,12.97,47.84626,-54.09684
2019-07-17 05:00:00+00:00,190.8115,13.3,12.89,47.84626,-54.09684
2019-07-17 05:10:00+00:00,191.6581,13.3,12.81,47.84626,-54.09684
2019-07-17 05:20:00+00:00,192.0181,13.3,12.89,47.84626,-54.09684
2019-07-17 05:30:00+00:00,187.8315,13.3,12.89,47.84626,-54.09684
2019-07-17 05:40:00+00:00,188.1998,13.3,12.89,47.84626,-54.09684
2019-07-17 05:50:00+00:00,192.0464,13.3,12.97,47.84626,-54.09684
2019-07-17 06:00:00+00:00,190.9348,13.33,12.89,47.84626,-54.09684
2019-07-17 06:10:00+00:00,188.2898,13.4,12.81,47.84626,-54.09684
2019-07-17 06:20:00+00:00,192.8548,13.5,12.89,47.84626,-54.09684
2019-07-17 06:30:00+00:00,197.8199,13.5,12.89,47.84626,-54.09684
2019-07-17 06:40:00+00:00,198.4048,13.56,12.89,47.84626,-54.09684
2019-07-17 06:50:00+00:00,200.7348,13.59,12.89,47.84626,-54.09684
2019-07-17 07:00:00+00:00,204.158,13.6,12.81,47.84626,-54.09684
2019-07-17 07:10:00+00:00,205.5182,13.6,12.73,47.84626,-54.09684
2019-07-17 07:20:00+00:00,208.0031,13.6,12.81,47.84626,-54.09684
2019-07-17 07:30:00+00:00,212.8481,13.6,12.89,47.84626,-54.09684
2019-07-17 07:40:00+00:00,215.1298,13.6,12.89,47.84626,-54.09684
2019-07-17 07:50:00+00:00,215.4847,13.6,12.89,47.84626,-54.09684
2019-07-17 08:00:00+00:00,220.8448,13.5,12.81,47.84626,-54.09684
2019-07-17 08:10:00+00:00,227.3281,13.5,12.73,47.84626,-54.09684
2019-07-17 08:20:00+00:00,229.4964,13.52,12.81,47.84626,-54.09684
2019-07-17 08:30:00+00:00,234.8114,13.5,12.81,47.84626,-54.09684
2019-07-17 08:40:00+00:00,242.9797,13.4,12.81,47.84626,-54.09684
2019-07-17 08:50:00+00:00,244.8264,13.5,12.89,47.84626,-54.09684
2019-07-17 09:00:00+00:00,246.5997,13.5,12.81,47.84626,-54.09684
2019-07-17 09:10:00+00:00,253.8647,13.46,12.73,47.84626,-54.09684
2019-07-17 09:20:00+00:00,261.4413,13.4,12.81,47.84626,-54.09684
2019-07-17 09:30:00+00:00,264.3247,13.4,12.81,47.84626,-54.09684
2019-07-17 09:40:00+00:00,268.2781,13.3,12.89,47.84626,-54.09684
2019-07-17 09:50:00+00:00,277.7464,13.3,12.89,47.84626,-54.09684
2019-07-17 10:00:00+00:00,285.3497,13.29,12.89,47.84626,-54.09684
2019-07-17 10:10:00+00:00,288.983,13.29,12.81,47.84626,-54.09684
2019-07-17 10:20:00+00:00,296.333,13.27,12.97,47.84626,-54.09684
2019-07-17 10:30:00+00:00,305.0164,13.27,13.05,47.84626,-54.09684
2019-07-17 10:40:00+00:00,310.1395,13.29,13.21,47.84626,-54.09684
2019-07-17 10:50:00+00:00,311.3765,13.3,13.29,47.84626,-54.09684
2019-07-17 11:00:00+00:00,314.448,13.3,13.29,47.84626,-54.09684
2019-07-17 11:10:00+00:00,316.4814,13.24,13.29,47.84626,-54.09684
2019-07-17 11:20:00+00:00,319.4813,13.2,13.44,47.84626,-54.09684
2019-07-17 11:30:00+00:00,321.5281,13.17,13.53,47.84626,-54.09684
2019-07-17 11:40:00+00:00,327.7263,13.1,13.6,47.84626,-54.09684
2019-07-17 11:50:00+00:00,330.6946,13.15,13.6,47.84626,-54.09684
2019-07-17 12:00:00+00:00,327.5396,13.2,13.53,47.84626,-54.09684
2019-07-17 12:10:00+00:00,325.6564,13.27,13.6,47.84626,-54.09684
2019-07-17 12:20:00+00:00,329.1195,13.22,13.68,47.84626,-54.09684
2019-07-17 12:30:00+00:00,327.7013,13.29,13.84,47.84626,-54.09684
2019-07-17 12:40:00+00:00,323.7031,13.3,13.84,47.84626,-54.09684
2019-07-17 12:50:00+00:00,323.7814,13.3,13.92,47.84626,-54.09684
2019-07-17 13:00:00+00:00,326.2012,13.3,13.92,47.84626,-54.09684
2019-07-17 13:10:00+00:00,321.6981,13.39,14.0,47.84626,-54.09684
2019-07-17 13:20:00+00:00,316.2814,13.43,14.08,47.84626,-54.09684
2019-07-17 13:30:00+00:00,314.9281,13.44,14.24,47.84626,-54.09684
2019-07-17 13:40:00+00:00,313.9313,13.4,14.32,47.84626,-54.09684
2019-07-17 13:50:00+00:00,306.828,13.42,14.56,47.84626,-54.09684
2019-07-17 14:00:00+00:00,298.473,13.5,14.56,47.84626,-54.09684
2019-07-17 14:10:00+00:00,294.613,13.5,14.64,47.84626,-54.09684
2019-07-17 14:20:00+00:00,292.2913,13.41,14.72,47.84626,-54.09684
2019-07-17 14:30:00+00:00,281.9097,13.46,14.64,47.84626,-54.09684
2019-07-17 14:40:00+00:00,271.9181,13.5,14.64,47.84626,-54.09684
2019-07-17 14:50:00+00:00,267.6064,13.5,14.56,47.84626,-54.09684
2019-07-17 15:00:00+00:00,264.4847,13.5,14.56,47.84626,-54.09684
2019-07-17 15:10:00+00:00,255.2831,13.51,14.48,47.84626,-54.09684
2019-07-17 15:20:00+00:00,245.5481,13.58,14.56,47.84626,-54.09684
2019-07-17 15:30:00+00:00,241.4964,13.59,14.48,47.84626,-54.09684
2019-07-17 15:40:00+00:00,235.5764,13.59,14.56,47.84626,-54.09684
2019-07-17 15:50:00+00:00,224.6014,13.6,14.4,47.84626,-54.09684
2019-07-17 16:00:00+00:00,217.2081,13.6,14.32,47.84626,-54.09684
2019-07-17 16:10:00+00:00,215.1681,13.63,14.4,47.84626,-54.09684
2019-07-17 16:20:00+00:00,209.9614,13.67,14.48,47.84626,-54.09684
2019-07-17 16:30:00+00:00,202.5298,13.7,14.48,47.84626,-54.09684
2019-07-17 16:40:00+00:00,200.5631,13.7,14.4,47.84626,-54.09684
2019-07-17 16:50:00+00:00,199.9598,13.75,14.4,47.84626,-54.09684
2019-07-17 17:00:00+00:00,191.7614,13.79,14.32,47.84626,-54.09684
2019-07-17 17:10:00+00:00,184.5365,13.8,14.24,47.84626,-54.09684
2019-07-17 17:20:00+00:00,183.8081,13.8,14.32,47.84626,-54.09684
2019-07-17 17:30:00+00:00,184.9948,13.8,14.24,47.84626,-54.09684
2019-07-17 17:40:00+00:00,181.3531,13.8,14.24,47.84626,-54.09684
2019-07-17 17:50:00+00:00,177.6431,13.8,14.24,47.84626,-54.09684
2019-07-17 18:00:00+00:00,183.2914,13.79,14.16,47.84626,-54.09684
2019-07-17 18:10:00+00:00,187.7015,13.78,14.0,47.84626,-54.09684
2019-07-17 18:20:00+00:00,187.2831,13.7,14.08,47.84626,-54.09684
2019-07-17 18:30:00+00:00,190.9814,13.6,14.08,47.84626,-54.09684
2019-07-17 18:40:00+00:00,195.8048,13.59,14.08,47.84626,-54.09684
2019-07-17 18:50:00+00:00,198.4664,13.58,14.08,47.84626,-54.09684
2019-07-17 19:00:00+00:00,200.9598,13.5,14.0,47.84626,-54.09684
2019-07-17 19:10:00+00:00,204.3181,13.5,13.92,47.84626,-54.09684
2019-07-17 19:20:00+00:00,209.5164,13.5,14.0,47.84626,-54.09684
2019-07-17 19:30:00+00:00,215.6648,13.48,14.0,47.84626,-54.09684
2019-07-17 19:40:00+00:00,218.9781,13.47,14.0,47.84626,-54.09684
2019-07-17 19:50:00+00:00,222.0131,13.47,14.08,47.84626,-54.09684
2019-07-17 20:00:00+00:00,229.7181,13.48,14.0,47.84626,-54.09684
2019-07-17 20:10:00+00:00,235.9314,13.4,14.0,47.84626,-54.09684
2019-07-17 20:20:00+00:00,237.8514,13.4,14.08,47.84626,-54.09684
2019-07-17 20:30:00+00:00,239.8431,13.41,14.0,47.84626,-54.09684
2019-07-17 20:40:00+00:00,242.9397,13.47,14.0,47.84626,-54.09684
2019-07-17 20:50:00+00:00,248.6831,13.49,14.0,47.84626,-54.09684
2019-07-17 21:00:00+00:00,254.3864,13.5,13.92,47.84626,-54.09684
2019-07-17 21:10:00+00:00,260.6897,13.44,13.84,47.84626,-54.09684
2019-07-17 21:20:00+00:00,268.1747,13.4,13.92,47.84626,-54.09684
2019-07-17 21:30:00+00:00,278.053,13.49,13.84,47.84626,-54.09684
2019-07-17 21:40:00+00:00,284.4581,13.47,13.84,47.84626,-54.09684
2019-07-17 21:50:00+00:00,290.663,13.54,13.84,47.84626,-54.09684
2019-07-17 22:00:00+00:00,298.1813,13.66,13.76,47.84626,-54.09684
2019-07-17 22:10:00+00:00,306.4547,13.7,13.6,47.84626,-54.09684
2019-07-17 22:20:00+00:00,312.8146,13.6,13.6,47.84626,-54.09684
2019-07-17 22:30:00+00:00,320.7013,13.3,13.53,47.84626,-54.09684
2019-07-17 22:40:00+00:00,329.9095,13.18,13.53,47.84626,-54.09684
2019-07-17 22:50:00+00:00,337.958,13.19,13.44,47.84626,-54.09684
2019-07-17 23:00:00+00:00,344.483,13.27,13.37,47.84626,-54.09684
2019-07-17 23:10:00+00:00,348.2746,13.3,13.21,47.84626,-54.09684
2019-07-17 23:20:00+00:00,351.3362,13.3,13.21,47.84626,-54.09684
2019-07-17 23:30:00+00:00,354.5146,13.21,13.21,47.84626,-54.09684
2019-07-17 23:40:00+00:00,357.5596,13.0,13.13,47.84626,-54.09684
2019-07-17 23:50:00+00:00,358.8979,13.0,13.13,47.84626,-54.09684
